Regional Weather Roundup
Issued by NWS

Home | Current Version | Previous Version | Text Only | Print | Product List | Glossary Off
Versions: 1 2 3 4 5 6 7 8 9 10 11 12 13 14 15 16 17 18 19 20 21 22 23 24 25 26 27 28 29 30 31 32 33 34 35 36 37 38 39 40 41 42 43 44 45 46 47 48 49 50

000
ASUS45 KSLC 020710
RWRUT

UTAH REGIONAL WEATHER ROUNDUP
NATIONAL WEATHER SERVICE SALT LAKE CITY UT
100 AM MDT TUE SEP 02 2014

UTZ001>011-023>025-020800-

NORTHERN UTAH

CITY           SKY/WX    TMP DP  RH WIND       PRES   REMARKS
HILL AFB       CLEAR     60  35  39 E18       30.07S
LOGAN          CLEAR     53  45  74 CALM      30.08R
OGDEN          CLEAR     60  35  39 S9        30.05S
PROVO AIRPORT  CLEAR     57  45  62 SE3       30.08F
SALT LAKE CITY CLEAR     63  36  36 S9        30.04S
VERNAL         CLEAR     59  39  47 N9        30.10S
WENDOVER       CLEAR     66  37  34 NE3       30.03F
HEBER CITY     CLEAR     50  36  57 CALM      30.16S
WEST JORDAN    CLEAR     59  45  58 S3        30.07F

$$

UTZ012>022-026-027-020800-

SOUTHERN UTAH

CITY           SKY/WX    TMP DP  RH WIND       PRES   REMARKS
BRYCE CANYON   CLEAR     47  36  65 W6        30.26F
CEDAR CITY     CLEAR     65  34  31 SE3       30.09F
MILFORD        CLEAR     61  34  36 W8        30.05S
MOAB/CYNLANDS  CLEAR     63  35  35 NE5       30.01S
PRICE          CLEAR     58  33  39 N9        30.13S
ST GEORGE      SUNNY     81  41  24 CALM      29.90S

$$

REGIONAL REPORTS     COLORADO/ARIZONA

CITY           SKY/WX    TMP DP  RH WIND       PRES   REMARKS
CRAIG, CO      CLEAR     44  40  85 CALM      30.19S
GRAND JUNCTION CLEAR     58  42  55 CALM      30.07R
RIFLE          CLEAR     57  39  51 S6        30.14F
MONTROSE       CLEAR     61  36  39 SE8       30.16S
CORTEZ         CLEAR     52  38  58 E6        30.15R
PAGE, AZ       CLEAR     77  38  24 SW3       29.98S
GRAND CANYON     N/A    N/A N/A N/A MISG        N/A
KINGMAN        CLEAR     75  40  28 S10       29.95S
FLAGSTAFF      CLEAR     52  42  69 CALM      30.26S

$$

REGIONAL REPORTS    NEVADA/IDAHO/WYOMING

CITY           SKY/WX    TMP DP  RH WIND       PRES   REMARKS
LAS VEGAS, NV  CLEAR     90  31  12 S10       29.78S
ELY            CLEAR     51  33  50 S7        30.13S
ELKO           CLEAR     54  29  38 E3        30.06S
POCATELLO, ID  CLEAR     50  39  66 CALM      30.07S
BURLEY         CLEAR     50  43  77 S5        30.04F
EVANSTON, WY   CLEAR     50  31  48 SE8       30.22F
ROCK SPRINGS   CLEAR     50  31  48 SW8       30.20F

$$



USA.gov is the U.S. government's official web portal to all federal, state and local government web resources and services.